FW1629 Weather Reports


time (UTC)temp
C
wind
direction
speed
KPH
gust
KPH
rain 1hr
cm
rain 24hr
cm
rain mn
cm
humidity
%
barometer
mb
20260505183011 15 187 51.5 69.2 0.03 0.05 0.05 89 996.8
20260505181510 14 189 45.1 61.2 0.05 0.05 0.05 90 997.4
20260505180010 14 212 56.3 78.9 0.05 0.05 0.05 90 997.0
20260505174514 13 214 53.1 66.0 0.05 0.05 0.05 91 997.5
20260505173018 13 212 6.4 48.3 0.03 0.03 0.03 85 997.5
20260505171505 15 205 70.8 88.5 0.00 0.00 0.00 79 997.7
20260505170003 15 202 59.5 74.0 0.00 0.00 0.00 79 997.0
20260505164604 14 160 43.5 70.8 0.00 0.00 0.00 75 997.5
20260505163101 14 175 46.7 59.5 0.00 0.00 0.00 69 997.9
20260505161554 14 157 56.3 72.4 0.00 0.00 0.00 68 998.0
20260505153105 11 160 53.1 72.4 0.00 0.00 0.00 76 998.4
20260505151554 11 161 43.5 61.2 0.00 0.00 0.00 73 998.4
20260505124530 11 175 0.0 0.0 0.00 0.00 0.00 65 1000.1
20260505123025 12 39 0.0 0.0 0.00 0.00 0.00 68 1000.3
20260505121521 12 39 0.0 0.0 0.00 0.00 0.00 66 1000.6
20260505120018 11 27 0.0 0.0 0.00 0.00 0.00 69 1000.7
20260505114527 10 36 0.0 0.0 0.00 0.00 0.00 71 1000.8
20260505113008 8 360 0.0 0.0 0.00 0.00 0.00 78 1001.2
20260505111505 6 6 0.0 27.4 0.00 0.00 0.00 81 1001.2
20260505101502 4 346 8.0 20.9 0.00 0.00 0.00 86 1001.7
20260505100100 3 17 0.0 0.0 0.00 0.00 0.00 86 1001.7
20260505094607 3 356 0.0 0.0 0.00 0.00 0.00 86 1001.6
20260505093057 3 10 12.9 30.6 0.00 0.00 0.00 85 1001.7
20260505091559 4 12 6.4 24.1 0.00 0.00 0.00 85 1001.8
20260505090058 4 3 0.0 0.0 0.00 0.00 0.00 85 1001.9
20260505084551 4 6 0.0 20.9 0.00 0.00 0.00 85 1002.0
20260505083051 4 3 0.0 1.6 0.00 0.00 0.00 85 1002.1
20260505081557 4 11 0.0 22.5 0.00 0.00 0.00 85 1002.2
20260505080048 5 339 0.0 1.6 0.00 0.00 0.00 84 1002.2
20260505074603 5 329 1.6 29.0 0.00 0.00 0.00 83 1002.2
20260505073040 5 332 1.6 24.1 0.00 0.00 0.00 83 1002.2
20260505071537 5 347 0.0 16.1 0.00 0.00 0.00 83 1002.4
20260505070035 5 358 0.0 19.3 0.00 0.00 0.00 83 1002.6
20260505064535 5 353 0.0 14.5 0.00 0.00 0.00 82 1002.7
20260505063038 5 343 0.0 4.8 0.00 0.00 0.00 81 1002.9
20260505061533 6 7 0.0 19.3 0.00 0.00 0.00 80 1003.1
20260505060027 6 5 0.0 0.0 0.00 0.00 0.00 81 1003.1
20260505054528 6 349 0.0 1.6 0.00 0.00 0.00 80 1003.4
20260505053023 6 355 0.0 17.7 0.00 0.00 0.00 81 1003.7
20260505051522 6 336 0.0 0.0 0.00 0.00 0.00 80 1003.8
20260505041514 6 330 0.0 0.0 0.00 0.00 0.00 79 1004.0
20260505040012 7 3 0.0 0.0 0.00 0.00 0.00 77 1003.9
20260505034514 7 4 0.0 0.0 0.00 0.00 0.00 77 1003.8
20260505033023 7 24 0.0 0.0 0.00 0.00 0.00 77 1003.9
20260505031510 7 24 0.0 0.0 0.00 0.00 0.00 77 1003.9
20260505030010 8 60 0.0 0.0 0.00 0.00 0.00 75 1004.1
20260505024525 8 156 0.0 25.7 0.00 0.00 0.00 78 1004.0
20260505023008 8 154 4.8 27.4 0.00 0.00 0.00 79 1004.1
20260505021525 7 20 0.0 0.0 0.00 0.00 0.00 76 1004.1
20260505020007 8 316 0.0 0.0 0.00 0.00 0.00 76 1004.1
20260505014506 8 214 0.0 3.2 0.00 0.00 0.00 74 1004.1
20260505013006 9 98 0.0 0.0 0.00 0.00 0.00 72 1004.0
20260505011507 9 178 0.0 27.4 0.00 0.00 0.00 70 1004.1
20260505010006 9 163 0.0 0.0 0.00 0.00 0.00 73 1004.0
20260505004513 9 150 0.0 0.0 0.00 0.00 0.00 72 1003.8
20260505003004 9 270 0.0 0.0 0.00 0.00 0.00 74 1003.6
20260505001504 9 150 0.0 19.3 0.00 0.00 0.00 74 1003.1
20260505000004 10 102 0.0 9.7 0.00 0.00 0.00 70 1002.8
20260504234503 10 273 0.0 0.0 0.00 0.00 0.00 68 1002.4
20260504233002 10 233 12.9 35.4 0.00 0.00 0.00 69 1002.2
20260504231502 10 226 14.5 43.5 0.00 0.00 0.00 72 1001.9
20260504230002 10 246 24.1 64.4 0.00 0.00 0.00 76 1001.7
20260504224558 9 218 46.7 64.4 0.00 0.00 0.00 77 1001.5
20260504223102 9 215 43.5 61.2 0.00 0.00 0.00 77 1001.2
20260504221605 9 201 41.8 72.4 0.00 0.00 0.00 76 1001.2
20260504220122 10 223 40.2 62.8 0.00 0.00 0.00 74 1001.1
20260504214553 10 232 32.2 56.3 0.00 0.00 0.00 72 1000.9
20260504213103 10 211 54.7 82.1 0.00 0.00 0.00 75 1000.7
20260504211548 9 229 53.1 90.1 0.00 0.00 0.00 80 1000.8
20260504210048 9 227 59.5 91.7 0.00 0.00 0.00 80 1000.5
20260504204600 9 216 66.0 96.6 0.00 0.00 0.00 81 1000.4
20260504203046 9 210 80.5 99.8 0.00 0.00 0.00 81 1000.5
20260504201544 9 201 82.1 99.8 0.00 0.00 0.00 80 1000.5
20260504200046 9 208 75.6 96.6 0.00 0.00 0.00 82 1000.5
20260504194544 9 214 77.2 99.8 0.00 0.00 0.00 84 1000.5
20260504193039 8 225 95.0 112.7 0.00 0.00 0.00 86 1000.7
20260504191541 8 212 86.9 104.6 0.00 0.00 0.00 85 1000.8
20260504190039 9 206 85.3 106.2 0.00 0.00 0.00 82 1000.9
20260504184537 9 208 83.7 106.2 0.00 0.00 0.00 81 1000.8